Tracking 30685 objects as of 18-Jun-2025
HD Live streaming from Space Station
objects crossing your sky now

NOAA 16 DEB

Track NOAA 16 DEB now!
10-day predictions


NORAD ID: 42349
Int'l Code: 2000-055QR
Perigee: 815.3 km
Apogee: 831.7 km
Inclination: 98.7 °
Period: 101.2 minutes
Semi major axis: 7194 km
RCS: Unknown
Launch date: September 21, 2000
Source: United States (US)
Launch site: AIR FORCE WESTERN TEST RANGE (AFWTR)

Note: This is SATELLITE DEBRIS
Your satellite tracking list
Your tracking list is empty




NASA's NSSDC Master Catalog

Two Line Element Set (TLE):
1 42349U 00055QR  25168.44495056  .00002598  00000-0  11792-2 0  9997
2 42349  98.6878 228.3187 0011348  90.2808 269.9671 14.22666375475306
Source of the keplerian elements: AFSPC